Location: La Fredeussais
(48.1780°N, 1.3980°W)
Time: 18:45:25
(UTC+00:00)

ERBS - Pass Details

Date: 09 May 2021
Orbit: 399 x 417 km, 57.0° (Epoch: 21 June)

Event Time Altitude Azimuth Distance (km) Brightness Sun altitude
Rises 23:18:16 0° 308° (NW) 2,357 6.8 -23.5°
Reaches altitude 10° 23:20:25 10° 315° (NW) 1,495 5.8 -23.5°
Enters shadow 23:23:16 40° 9° (N) 626 3.5 -23.6°
